Stations météo

réclame
Mon MeteoGroup
Jersey Airport, Grande-Bretagne (3895): Température de l'air & dewpoint: 20.08.2019 01:00:00 - 26.08.2019 01:00:00 (BST)Jersey Airport, Grande-Bretagne (3895): Température de l'air -20cm & Température de l'air -100cm: 20.08.2019 01:00:00 - 26.08.2019 01:00:00 (BST)Jersey Airport, Grande-Bretagne (3895): Vitesse du vent: 20.08.2019 01:00:00 - 26.08.2019 01:00:00 (BST)Jersey Airport, Grande-Bretagne (3895): Direction du vent: 20.08.2019 01:00:00 - 26.08.2019 01:00:00 (BST)Jersey Airport, Grande-Bretagne (3895): reduced air pressure: 20.08.2019 01:00:00 - 26.08.2019 01:00:00 (BST)Jersey Airport, Grande-Bretagne (3895): visibility: 20.08.2019 01:00:00 - 26.08.2019 01:00:00 (BST)Jersey Airport, Grande-Bretagne (3895): Ensoleillement: 20.08.2019 01:00:00 - 26.08.2019 01:00:00 (BST)Jersey Airport, Grande-Bretagne (3895): Quantités de précipitations: 20.08.2019 01:00:00 - 26.08.2019 01:00:00 (BST)
Date & Time tt [°C] td [°C] tt -20cm [°C] tt -100cm [°C] ff [km/h] ff [knt] dd ppp [hPa] vv [km] sd [min] rr [mm]
26.08.2019 01:00:00 17,2 16,4 - - 9 5 NNW 1019,8 10 - 0,0
26.08.2019 00:00:00 17,1 16,4 - - 9 5 NNW 1020,2 17 0 0,0
25.08.2019 23:00:00 16,9 16,3 - - 9 5 NW 1020,1 10 0 0,0
25.08.2019 22:00:00 16,4 15,8 - - 11 6 WNW 1020,1 9 0 0,0
25.08.2019 21:00:00 16,2 15,3 - - 11 6 NW 1019,7 7 0 0,0
25.08.2019 20:00:00 17,2 15,7 - - 13 7 W 1019,3 10 42 0,0
25.08.2019 19:00:00 18,3 15,7 - - 11 6 W 1019,2 16 60 0,0
25.08.2019 18:00:00 18,8 15,3 - - 9 5 W 1019,2 10 60 0,0
25.08.2019 17:00:00 19,2 15,0 - - 11 6 W 1019,3 30 60 0,0
25.08.2019 16:00:00 19,3 15,4 - - 15 8 W 1019,2 10 60 0,0
25.08.2019 15:00:00 19,7 15,7 - - 15 8 W 1019,5 10 36 0,0
25.08.2019 14:00:00 18,0 16,3 - - 13 7 WNW 1019,6 10 18 0,0
25.08.2019 13:00:00 17,6 16,3 - - 13 7 W 1019,3 10 18 0,0
25.08.2019 12:00:00 19,6 17,0 - - 13 7 WNW 1018,8 12 60 0,0
25.08.2019 11:00:00 19,0 16,6 - - 15 8 W 1018,8 10 54 0,0
25.08.2019 10:00:00 18,3 16,4 20,0 17,5 16 9 WNW 1018,5 10 24 0,0
25.08.2019 09:00:00 17,1 16,3 - - 18 10 WNW 1018,1 10 0 0,0
25.08.2019 08:00:00 17,5 16,9 - - 16 9 W 1017,4 9 6 0,0
25.08.2019 07:00:00 17,0 16,6 - - 13 7 W 1017,0 9 0 0,0
25.08.2019 06:00:00 16,8 16,6 - - 15 8 WNW 1016,7 3,8 0 0,0
25.08.2019 05:00:00 17,0 16,7 - - 13 7 WNW 1016,4 2,5 0 0,0
25.08.2019 04:00:00 17,1 16,8 - - 13 7 WNW 1016,4 3,0 0 0,0
25.08.2019 03:00:00 17,4 16,8 - - 15 8 WNW 1016,3 4,1 0 0,0
25.08.2019 02:00:00 17,6 16,1 - - 13 7 W 1016,1 10 0 0,0
25.08.2019 01:00:00 17,8 15,9 - - 9 5 WNW 1016,1 10 - 0,0
25.08.2019 00:00:00 17,8 16,5 - - 13 7 WNW 1016,2 10 0 0,0
24.08.2019 23:00:00 18,6 16,6 - - 15 8 W 1015,9 10 0 0,0
24.08.2019 22:00:00 19,7 16,3 - - 15 8 WSW 1015,9 10 0 0,0
24.08.2019 21:00:00 23,6 15,6 - - 13 7 SSE 1015,3 10 0 0,0
24.08.2019 20:00:00 23,6 15,8 - - 16 9 E 1014,9 10 18 0,0
24.08.2019 19:00:00 26,5 14,9 - - 18 10 E 1014,8 10 24 0,0
24.08.2019 18:00:00 27,5 11,8 - - 18 10 ESE 1014,9 10 12 0,0
24.08.2019 17:00:00 29,2 11,2 - - 21 11 ESE 1015,2 40 54 0,0
24.08.2019 16:00:00 29,8 11,0 - - 24 13 ESE 1015,5 10 60 0,0
24.08.2019 15:00:00 29,9 12,5 - - 24 13 ESE 1016,0 10 60 0,0
24.08.2019 14:00:00 29,2 12,2 - - 22 12 SE 1016,4 10 60 0,0
24.08.2019 13:00:00 27,0 12,8 - - 22 12 ESE 1016,8 10 60 0,0
24.08.2019 12:00:00 25,7 12,2 - - 22 12 SE 1017,2 35 54 0,0
24.08.2019 11:00:00 24,3 12,7 - - 24 13 ESE 1017,4 35 60 0,0
24.08.2019 10:00:00 23,0 12,8 19,7 17,4 21 11 SE 1017,5 10 60 0,0
24.08.2019 09:00:00 21,0 13,2 - - 18 10 ESE 1017,5 10 24 0,0
24.08.2019 08:00:00 18,9 13,4 - - 16 9 ESE 1017,6 10 24 0,0
24.08.2019 07:00:00 16,1 13,1 - - 18 10 ESE 1017,7 45 6 0,0
24.08.2019 06:00:00 14,4 11,4 - - 16 9 ESE 1017,9 40 0 0,0
24.08.2019 05:00:00 14,8 11,8 - - 18 10 ESE 1018,2 10 0 0,0
24.08.2019 04:00:00 16,0 12,3 - - 18 10 E 1018,6 10 0 0,0
24.08.2019 03:00:00 16,7 12,6 - - 21 11 E 1018,9 10 0 0,0
24.08.2019 02:00:00 17,1 12,3 - - 21 11 E 1019,1 10 0 0,0
24.08.2019 01:00:00 16,4 12,0 - - 21 11 E 1019,7 10 - 0,0
24.08.2019 00:00:00 17,7 11,7 - - 18 10 E 1019,7 45 0 0,0
23.08.2019 23:00:00 18,6 11,6 - - 24 13 E 1020,1 10 0 0,0
23.08.2019 22:00:00 18,7 11,9 - - 22 12 E 1020,4 10 0 0,0
23.08.2019 21:00:00 18,9 13,1 - - 22 12 ENE 1020,5 45 0 0,0
23.08.2019 20:00:00 20,4 13,1 - - 15 8 E 1020,6 10 48 0,0
23.08.2019 19:00:00 22,7 13,4 - - 15 8 ENE 1020,7 10 60 0,0
23.08.2019 18:00:00 22,4 14,0 - - 16 9 NNE 1021,1 25 54 0,0
23.08.2019 17:00:00 23,3 13,7 - - 13 7 NNE 1021,5 10 60 0,0
23.08.2019 16:00:00 24,1 13,6 - - 18 10 NE 1021,8 40 60 0,0
23.08.2019 15:00:00 25,3 11,7 - - 8 4 W 1022,3 10 60 0,0
23.08.2019 14:00:00 24,3 11,5 - - 11 6 SE 1022,8 30 60 0,0
23.08.2019 13:00:00 23,2 11,9 - - 16 9 ESE 1023,1 10 60 0,0
23.08.2019 12:00:00 22,7 11,1 - - 11 6 ESE 1023,4 40 60 0,0
23.08.2019 11:00:00 21,9 11,7 - - 11 6 SE 1023,9 10 60 0,0
23.08.2019 10:00:00 20,4 13,7 19,2 17,4 13 7 E 1024,2 10 60 0,0
23.08.2019 09:00:00 18,3 13,7 - - 16 9 E 1024,2 10 60 0,0
23.08.2019 08:00:00 16,8 14,1 - - 15 8 E 1024,4 10 48 0,0
23.08.2019 07:00:00 13,6 12,8 - - 16 9 E 1024,7 18 0 0,0
23.08.2019 06:00:00 13,6 12,0 - - 16 9 E 1024,5 10 0 0,0
23.08.2019 05:00:00 13,0 12,0 - - 16 9 E 1024,9 10 0 0,0
23.08.2019 04:00:00 13,7 13,1 - - 18 10 E 1025,1 15 0 0,0
23.08.2019 03:00:00 12,1 11,2 - - 15 8 ESE 1025,5 6 0 0,0
23.08.2019 02:00:00 12,8 11,5 - - 16 9 ESE 1026,0 10 0 0,0
23.08.2019 01:00:00 12,7 11,1 - - 15 8 E 1026,2 10 - 0,0
23.08.2019 00:00:00 13,8 12,1 - - 13 7 E 1026,3 17 0 0,0
22.08.2019 23:00:00 15,5 11,8 - - 13 7 ENE 1026,3 10 0 0,0
22.08.2019 22:00:00 15,8 12,3 - - 15 8 NE 1026,3 10 0 0,0
22.08.2019 21:00:00 15,8 13,3 - - 15 8 NE 1026,1 10 0 0,0
22.08.2019 20:00:00 16,3 12,9 - - 13 7 NNE 1025,8 21 36 0,0
22.08.2019 19:00:00 17,9 13,5 - - 15 8 NNE 1025,6 10 60 0,0
22.08.2019 18:00:00 19,5 12,8 - - 11 6 N 1025,6 10 60 0,0
22.08.2019 17:00:00 19,4 13,5 - - 15 8 N 1025,9 10 60 0,0
22.08.2019 16:00:00 20,5 13,9 - - 11 6 NNE 1026,0 10 60 0,0
22.08.2019 15:00:00 20,6 13,7 - - 13 7 N 1026,2 20 60 0,0
22.08.2019 14:00:00 20,5 13,6 - - 8 4 N 1026,4 10 24 0,0
22.08.2019 13:00:00 19,7 14,0 - - 8 4 - 1026,6 10 24 0,0
22.08.2019 12:00:00 20,3 14,1 - - 9 5 NNW 1026,7 35 60 0,0
22.08.2019 11:00:00 20,9 10,3 - - 9 5 E 1026,8 10 60 0,0
22.08.2019 10:00:00 20,0 12,5 19,0 17,4 5 3 E 1026,5 10 60 0,0
22.08.2019 09:00:00 18,5 13,2 - - 5 3 N 1026,6 10 60 0,0
22.08.2019 08:00:00 16,0 14,3 - - 4 2 NNW 1026,4 10 60 0,0
22.08.2019 07:00:00 14,8 13,2 - - 5 3 SE 1026,1 10 6 0,0
22.08.2019 06:00:00 14,4 13,1 - - 5 3 SSE 1025,9 10 0 0,0
22.08.2019 05:00:00 13,4 12,1 - - 9 5 SE 1025,7 10 0 0,0
22.08.2019 04:00:00 13,8 12,7 - - 9 5 ESE 1025,7 10 0 0,0
22.08.2019 03:00:00 13,5 12,6 - - 9 5 ESE 1025,8 19 0 0,0
22.08.2019 02:00:00 13,4 12,4 - - 9 5 ESE 1026,2 10 0 0,0
22.08.2019 01:00:00 13,6 12,7 - - 11 6 ESE 1026,5 10 - 0,0
22.08.2019 00:00:00 13,5 12,2 - - 13 7 E 1026,6 10 0 0,0
21.08.2019 23:00:00 13,5 11,4 - - 13 7 E 1026,6 10 0 0,0
21.08.2019 22:00:00 15,2 11,1 - - 11 6 ENE 1026,5 10 0 0,0
21.08.2019 21:00:00 15,4 11,2 - - 15 8 NE 1026,4 23 0 0,0
21.08.2019 20:00:00 16,2 11,3 - - 9 5 NE 1026,0 10 36 0,0
21.08.2019 19:00:00 17,9 11,5 - - 11 6 NNE 1025,9 10 60 0,0
21.08.2019 18:00:00 18,7 11,0 - - 9 5 NNE 1026,0 18 60 0,0
21.08.2019 17:00:00 19,7 8,5 - - 9 5 N 1026,6 35 60 0,0
21.08.2019 16:00:00 19,4 11,8 - - 11 6 - 1026,7 10 60 0,0
21.08.2019 15:00:00 19,6 12,2 - - 9 5 - 1026,9 10 60 0,0
21.08.2019 14:00:00 19,3 10,9 - - 11 6 W 1027,2 10 60 0,0
21.08.2019 13:00:00 19,5 9,4 - - 8 4 SW 1027,3 30 60 0,0
21.08.2019 12:00:00 18,7 7,1 - - 8 4 S 1027,7 35 60 0,0
21.08.2019 11:00:00 17,7 10,5 - - 13 7 SSE 1028,0 10 60 0,0
21.08.2019 10:00:00 16,6 12,8 18,7 17,4 15 8 SE 1028,1 10 30 0,0
21.08.2019 09:00:00 15,5 13,4 - - 9 5 ESE 1028,2 10 0 0,0
21.08.2019 08:00:00 14,3 13,3 - - 8 4 ESE 1028,3 10 0 0,0
21.08.2019 07:00:00 11,6 9,5 - - 5 3 ENE 1028,1 10 0 0,0
21.08.2019 06:00:00 11,7 9,5 - - 4 2 ENE 1028,0 10 0 0,0
21.08.2019 05:00:00 12,8 11,7 - - 2 1 ENE 1028,0 10 0 0,0
21.08.2019 04:00:00 13,0 11,7 - - 2 1 E 1028,0 10 0 0,0
21.08.2019 03:00:00 12,0 10,8 - - 2 1 - 1028,1 10 0 0,0
21.08.2019 02:00:00 12,4 10,8 - - 8 4 NNW 1028,0 10 0 0,0
21.08.2019 01:00:00 12,5 10,9 - - 8 4 NW 1028,4 10 - 0,0
21.08.2019 00:00:00 12,2 10,4 - - 8 4 NW 1028,4 10 0 0,0
20.08.2019 23:00:00 12,8 10,6 - - 8 4 NW 1028,5 10 0 0,0
20.08.2019 22:00:00 13,0 10,7 - - 8 4 NW 1028,5 10 0 0,0
20.08.2019 21:00:00 13,6 10,9 - - 8 4 NW 1028,1 10 0 0,0
20.08.2019 20:00:00 15,0 10,6 - - 9 5 NNW 1027,6 21 54 0,0
20.08.2019 19:00:00 16,3 10,4 - - 15 8 WNW 1027,4 10 60 0,0
20.08.2019 18:00:00 17,2 11,3 - - 16 9 WNW 1027,0 10 60 0,0
20.08.2019 17:00:00 17,3 10,9 - - 18 10 W 1026,8 10 60 0,0
20.08.2019 16:00:00 17,8 11,2 - - 18 10 WNW 1026,8 17 60 0,0
20.08.2019 15:00:00 17,8 11,2 - - 21 11 W 1026,7 10 60 0,0
20.08.2019 14:00:00 17,8 11,0 - - 18 10 WNW 1026,3 14 60 0,0
20.08.2019 13:00:00 18,3 12,4 - - 21 11 W 1026,1 10 60 0,0
20.08.2019 12:00:00 17,6 11,7 - - 21 11 W 1025,9 10 60 0,0
20.08.2019 11:00:00 17,3 11,4 - - 16 9 W 1025,6 10 60 0,0
20.08.2019 10:00:00 17,1 11,8 19,0 17,4 18 10 WNW 1025,0 10 54 0,0
20.08.2019 09:00:00 16,4 11,5 - - 15 8 WNW 1024,6 10 60 0,0
20.08.2019 08:00:00 15,6 11,3 - - 15 8 W 1024,2 10 54 0,0
20.08.2019 07:00:00 14,2 11,3 - - 9 5 WNW 1023,6 10 0 0,0
20.08.2019 06:00:00 13,5 10,7 - - 13 7 NW 1022,9 23 0 0,0
20.08.2019 05:00:00 14,5 11,4 - - 13 7 WNW 1022,3 10 0 0,0
20.08.2019 04:00:00 14,1 10,6 - - 13 7 WNW 1022,3 10 0 0,0
20.08.2019 03:00:00 14,7 11,2 - - 13 7 WNW 1022,0 10 0 0,0
20.08.2019 02:00:00 15,2 12,1 - - 15 8 WNW 1022,3 10 0 0,0
20.08.2019 01:00:00 15,4 12,3 - - 18 10 W 1022,3 10 - 0,0

tt = Température de l'air
td = dewpoint
tt -20cm = Température de l'air -20cm
tt -100cm = Température de l'air -100cm
ff = Vitesse du vent
dd = Direction du vent
ppp = reduced air pressure
vv = visibility
sd = Ensoleillement
rr = Quantités de précipitations

stations d'obs. à proximité